Guymon, OK

3:18 PM CDT on March 23, 2017 (GMT -0500)
Guymon Municipal

Weather History for KGUY - March, 2013

Change the Weather History Date:

Saturday, March 30, 2013

  Actual Average Record
Temperature  
Mean Temperature 61 °F 50 °F  
Max Temperature 79 °F 65 °F 83 °F (2014)
Min Temperature 43 °F 36 °F 21 °F (2011)
Degree Days  
Heating Degree Days 4 15  
Month to date heating degree days 549 567  
Since 1 July heating degree days 3782 4034  
Cooling Degree Days 0 0  
Month to date cooling degree days 0 0  
Year to date cooling degree days 0 0  
Growing Degree Days 11 (Base 50)    
Moisture  
Dew Point 37 °F    
Average Humidity 53    
Maximum Humidity 89    
Minimum Humidity 17    
Precipitation  
Precipitation 0.01 in 0.05 in 0.10 in (2007)
Month to date precipitation 0.14 1.38  
Year to date precipitation 1.70 2.25  
Snow  
Snow 0.00 in - - ()
Month to date snowfall 2.5  
Since 1 July snowfall 22.0  
Snow Depth 0.00 in    
Sea Level Pressure  
Sea Level Pressure 29.91 in    
Wind  
Wind Speed 8 mph (North)    
Max Wind Speed 30 mph    
Max Gust Speed 44 mph    
Visibility 10 miles    
Events Rain    
T = Trace of Precipitation, MM = Missing Value Source: NWS Daily Summary

Daily Weather History Graph

Daily Weather History Graph

Search for Another Location

Airport or City:

Trip Planner

Search our weather history database for the weather conditions in past years. The results will help you decide how hot, cold, wet, or windy it might be!

Date:

Astronomy

Mar. 30, 2013 Rise Set
Actual Time 7:34 AM CDT 8:06 PM CDT
Civil Twilight 7:08 AM CDT 8:32 PM CDT
Nautical Twilight 6:37 AM CDT 9:03 PM CDT
Astronomical Twilight 6:06 AM CDT 9:34 PM CDT
Moon No Moon Rise 9:37 AM CDT (3/30)
Length of Visible Light 13h 24m
Length of Day
12h 32m
Waning Gibbous, 86% of the Moon is Illuminated
Mar 30
Waning Gibbous
Apr 2
Last Quarter
Apr 10
New
Apr 18
First Quarter
Apr 25
Full

Hourly Weather History & Observations

Time (CDT) Temp. Windchill Dew Point Humidity Pressure Visibility Wind Dir Wind Speed Gust Speed Precip Events Conditions
12:53 AM 48.9 °F - 45.0 °F 86% 29.94 in 10.0 mi WSW 5.8 mph - N/A   Clear
1:53 AM 48.0 °F - 44.1 °F 86% 29.94 in 10.0 mi North 3.5 mph - N/A   Clear
2:53 AM 48.9 °F - 45.0 °F 86% 29.94 in 10.0 mi Calm Calm - N/A   Clear
3:53 AM 46.9 °F - 43.0 °F 86% 29.93 in 10.0 mi WNW 3.5 mph - N/A   Clear
4:53 AM 46.0 °F 44.8 °F 42.1 °F 86% 29.93 in 10.0 mi NNW 3.5 mph - N/A   Clear
5:53 AM 46.0 °F 43.1 °F 42.1 °F 86% 29.93 in 10.0 mi WNW 5.8 mph - N/A   Clear
6:53 AM 44.1 °F - 41.0 °F 89% 29.94 in 10.0 mi Calm Calm - N/A   Clear
7:53 AM 46.9 °F - 42.1 °F 83% 29.96 in 10.0 mi WNW 9.2 mph - N/A   Clear
8:53 AM 51.1 °F - 43.0 °F 74% 29.97 in 10.0 mi NW 5.8 mph - N/A   Clear
9:53 AM 60.1 °F - 45.0 °F 57% 29.97 in 10.0 mi North 16.1 mph 23.0 mph N/A   Clear
10:53 AM 64.9 °F - 39.9 °F 40% 29.98 in 10.0 mi North 13.8 mph - N/A   Clear
11:53 AM 71.1 °F - 37.0 °F 29% 29.96 in 10.0 mi NNE 15.0 mph - N/A   Clear
12:53 PM 72.0 °F - 37.0 °F 28% 29.94 in 10.0 mi North 9.2 mph - N/A   Clear
1:53 PM 75.0 °F - 35.1 °F 23% 29.92 in 10.0 mi NNE 9.2 mph 16.1 mph N/A   Clear
2:53 PM 77.0 °F - 34.0 °F 21% 29.88 in 10.0 mi WNW 8.1 mph - N/A   Clear
3:53 PM 77.0 °F - 30.9 °F 19% 29.87 in 10.0 mi Variable 4.6 mph - N/A   Clear
4:53 PM 78.1 °F - 30.0 °F 17% 29.86 in 10.0 mi NW 10.4 mph - N/A   Partly Cloudy
5:53 PM 75.9 °F - 28.9 °F 18% 29.84 in 10.0 mi ENE 3.5 mph - N/A   Clear
6:53 PM 75.9 °F - 28.9 °F 18% 29.83 in 10.0 mi Calm Calm - N/A   Clear
7:53 PM 71.1 °F - 30.0 °F 22% 29.83 in 10.0 mi East 4.6 mph - N/A   Clear
8:53 PM 66.0 °F - 30.0 °F 26% 29.85 in 10.0 mi East 6.9 mph - N/A   Clear
9:53 PM 66.0 °F - 32.0 °F 28% 29.86 in 10.0 mi ENE 8.1 mph - N/A   Scattered Clouds
10:53 PM 61.0 °F - 35.1 °F 38% 29.89 in 10.0 mi North 10.4 mph - 0.00 in   Clear
11:53 PM 57.9 °F - 37.0 °F 46% 29.95 in 10.0 mi North 23.0 mph 28.8 mph 0.00 in Rain Light Rain